Location: Newark
(3.0500°N, 36.0167°E)
Time: 19:36:40
(UTC+00:00)

A-11 Canister half - Pass Details

Date: 01 September 2019
Orbit: 1527 x 1682 km, 47.3° (Epoch: 22 September)

Event Time Altitude Azimuth Distance (km) Brightness Sun altitude
Rises 17:45:21 0° 278° (W) 4,890 12.8 -31.4°
Reaches altitude 10° 17:51:00 10° 253° (WSW) 3,874 11.8 -32.8°
Maximum altitude 17:55:09 13° 228° (SW) 3,592 11.3 -33.8°
Drops below altitude 10° 17:59:16 10° 202° (SSW) 3,823 11.1 -34.8°
Enters shadow 18:04:36 - 177° (S) 4,720 11.4 -36.1°
Sets 18:04:51 0° 176° (S) 4,772 - -36.2°
